Location: Gerlach
(40.6516°N, 119.3568°W)
Time: 16:53:08
(UTC-07:00)

ITAMSAT 1 - Pass Details

Date: 13 August 2024
Orbit: 782 x 795 km, 98.8° (Epoch: 14 September)

Event Time Altitude Azimuth Distance (km) Brightness Sun altitude
Exits shadow 20:21:41 - 119° (ESE) 2,707 9.7 -5.2°
Reaches altitude 10° 20:22:48 10° 112° (ESE) 2,357 9.4 -5.4°
Maximum altitude 20:26:41 22° 64° (ENE) 1,692 9.1 -6.0°
Drops below altitude 10° 20:30:34 10° 15° (NNE) 2,371 10.3 -6.7°
Sets 20:33:23 0° 1° (N) 3,305 11.2 -7.2°
